Location: Namasale
(1.5000°N, 32.6167°E)
Time: 04:31:46
(UTC+00:00)

Courier 1B - Visible Passes

Search period start: 14 April 2021 00:00
Search period end: 24 April 2021 00:00
Orbit: 963 x 1209 km, 28.3° (Epoch: 12 April)

Date Brightness Start Highest point End Pass type
(mag) Time Alt. Az. Time Alt. Az. Time Alt. Az.
14 Apr 9.6 17:17:00 10° N 17:20:24 14° NNE 17:22:29 12° NE visible
14 Apr 10.1 19:08:26 10° NW 19:09:23 14° NW 19:09:23 14° NW visible
15 Apr 9.1 18:15:07 10° NNW 18:19:00 26° N 18:19:00 26° N visible
16 Apr 9.0 17:21:58 10° NNW 17:27:17 23° NNE 17:28:39 22° NE visible
16 Apr 10.1 19:14:32 10° NW 19:15:33 15° NW 19:15:33 15° NW visible
17 Apr 9.4 16:29:06 10° NNW 16:33:14 17° NNE 16:37:29 10° ENE visible
17 Apr 8.7 18:20:58 10° NW 18:25:14 37° NNW 18:25:14 37° NNW visible
18 Apr 8.3 17:27:35 10° NW 17:33:54 39° NNE 17:34:57 37° NE visible
18 Apr 10.2 19:21:07 10° WNW 19:21:51 13° WNW 19:21:51 13° WNW visible
19 Apr 8.8 16:34:21 10° NNW 16:40:00 28° NNE 16:44:41 14° ENE visible
19 Apr 8.6 18:27:16 10° WNW 18:31:35 42° WNW 18:31:35 42° WNW visible
20 Apr 7.6 17:33:38 10° NW 17:40:24 70° NNE 17:41:22 62° ENE visible
21 Apr 9.9 03:15:43 10° SSW 03:20:09 16° SSE 03:24:27 10° ESE visible
21 Apr 8.0 16:40:09 10° NW 16:46:34 50° NNE 16:51:09 21° E visible
21 Apr 9.0 18:34:08 10° WNW 18:38:04 33° W 18:38:04 33° W visible
22 Apr 10.0 02:23:03 10° S 02:25:49 12° SSE 02:28:33 10° SE visible
22 Apr 7.7 17:40:11 10° WNW 17:46:52 66° SSW 17:47:52 59° SSE visible
23 Apr 9.4 03:20:36 10° SSW 03:27:00 27° SSE 03:33:10 10° E visible
23 Apr 7.6 16:46:25 10° WNW 16:53:03 90° NNE 16:57:42 23° ESE visible
23 Apr 9.6 18:41:45 10° W 18:44:36 21° WSW 18:44:36 21° WSW visible
